SHIJIAN-29B (SJ-29B)

Last updated on Mon Sep 07 2026 00:03:03 GMT+0000 (Coordinated Universal Time)

1 67403U 25315C 26249.74894899 -.00000088 00000+0 00000+0 0 9992 2 67403 3.5977 93.1202 0006814 86.5184 149.2999 1.00272972 2501
UTC large
Height (km)
Speed (km/s)
/
Latitude / Longitude
Inclination (degrees)
Orbital Period (minutes)
Azimuth
Elevation
Range (km)
Doppler Factor

Next 0 passes for location: London (51.5072 / 0.1276)

No passes found over London.
SHIJIAN-29B (SJ-29B)